Regional Weather Roundup
Issued by NWS Wakefield, VA

Home | Current Version | Previous Version | Text Only | Print | Product List | Glossary On
Versions: 1 2 3 4 5 6 7 8 9 10 11 12 13 14 15 16 17 18 19 20 21 22 23 24 25 26 27 28 29 30 31 32 33 34 35 36 37 38 39 40 41 42 43 44 45 46 47 48 49 50
000
ASUS41 KAKQ 270314
RWRAKQ

REGIONAL WEATHER ROUNDUP
NATIONAL WEATHER SERVICE WAKEFIELD VA
1100 PM EDT THU MAR 26 2015

Note: "fair" indicates few or no clouds below 12,000 feet with no
significant weather and/or obstructions to visibility. * = Denotes
station may not report precipitation (e.g., rain,snow,etc.),
thunder or fog.

VAZ042-051-052>054-056-270400-
NORTHERN VIRGINIA

CITY           SKY/WX    TMP DP  RH WIND       PRES   REMARKS
WASH NATIONAL  LGT RAIN  56  48  74 N14       29.73R
DULLES         CLOUDY    51  44  77 NW15      29.75R
FORT BELVOIR   CLOUDY    55  50  82 N8        29.73R
QUANTICO       LGT RAIN  56  51  84 N9G25     29.74R
FREDERICKSBRG* HVY RAIN  58  58  98 N8        29.70R
STAFFORD*      RAIN      56  32  39 N9G16     29.75R
WARRENTON      CLOUDY    56  52  86 N20G25    29.73R
CULPEPER*      CLOUDY    55  52  88 N15       29.73R
MANASSAS*      CLOUDY    54  46  76 N17G23    29.74R
LEESBURG*      CLOUDY    50  45  81 N14G22    29.77R
WINCHESTER     CLOUDY    50  36  57 NW12G23   29.79R
FRONT ROYAL*   CLOUDY    48  41  76 NW13G18   29.78R
LURAY*         DRIZZLE   55  46  71 N7        29.76R
$$

VAZ048-049-060>072-079>083-270400-
CENTRAL AND SOUTH CENTRAL VIRGINIA

CITY           SKY/WX    TMP DP  RH WIND       PRES   REMARKS
RICHMOND       CLOUDY    67  54  63 S10       29.67F
CHESTERFIELD*  FAIR      68  48  49 SW8       29.69F
PETERSBURG*    CLOUDY    67  55  63 SW3       29.69S
HANOVER        CLOUDY    68  54  60 SW7       29.68S
TAPPAHANNOCK*  CLOUDY    67  53  60 S3        29.67F
QUINTON*       FAIR      66  57  72 CALM      29.68S
CHARLOTTSVILLE CLOUDY    60  56  86 W3        29.69R
GORDONSVILLE*  CLOUDY    60  55  84 S5        29.67S
ORANGE*        CLOUDY    61  55  82 N13       29.71R
LOUISA*        LGT RAIN  63  59  88 N3        29.67S
BUMPASS*       CLOUDY    62  58  87 CALM      29.68R
FARMVILLE*     CLOUDY    67  55  63 SW3       29.66S
CREWE*         FAIR      67  54  64 MISG      29.67S
FORT PICKETT*  FAIR      66  55  66 SW12G23   29.68S
CHASE CITY*    FAIR      68  58  71 CALM      29.69S
CLARKSVILLE*   FAIR      64  54  68 S7        29.69S
SOUTH HILL*    CLOUDY    62  55  75 S7        29.75F
LAWRENCEVILLE* FAIR      63  56  80 CALM      29.70S
EMPORIA*       CLOUDY    63  55  77 SE5       29.73R
$$

VAZ088>098-270400-
SOUTHEAST VIRGINIA

CITY           SKY/WX    TMP DP  RH WIND       PRES   REMARKS
NORFOLK        CLOUDY    65  57  75 S15       29.71S
VIRGINIA BEACH CLOUDY    69  56  62 S13       29.72R
NORFOLK NAVAL  CLOUDY    70  57  63 S17G25    29.73R
WEST POINT*    CLOUDY    67  56  66 S3        29.69S
SALUDA*        FAIR      65  58  79 SW10      29.68R
NEWPORT NEWS   NOT AVBL
LANGLEY AFB    CLOUDY    65  58  75 SW10      29.70R
FORT EUSTIS    CLOUDY    63  56  79 VRB6      29.68S
WILLIAMSBURG*  CLOUDY    66  61  82 S6        29.70F
HR EXEC AP*    FAIR      66  57  72 S9        29.74R
FRANKLIN*      CLOUDY    64  57  78 S9        29.73R
WAKEFIELD      CLOUDY    65  56  72 S6        29.71R
$$

VAZ020-022-025-037-045-270400-
WEST CENTRAL AND SOUTHWEST VIRGINIA

CITY           SKY/WX    TMP DP  RH WIND       PRES   REMARKS
STAUNTON*      RAIN      59  50  71 N9        29.73S
WAYNESBORO*    CLOUDY    55  53  94 SW6       29.72R
HOT SPRINGS VA FOG       44  44 100 NW20      29.73S VSB 1/2
LYNCHBURG      CLOUDY    61  54  77 N5        29.70R
DANVILLE       CLOUDY    66  55  67 S6        29.68F
SOUTH BOSTON*  FAIR      66  54  66 MISG      29.68F
MARTINSVILLE   CLOUDY    66  53  62 CALM      29.71S
ROANOKE        LGT RAIN  56  53  90 CALM      29.75R
BLACKSBURG     CLOUDY    51  46  84 W7        29.79R
DUBLIN*        CLOUDY    51  47  86 NW10      29.79R
MARION*        RAIN      49  44  83 W10G17    29.82R
HILLSVILLE*    RAIN      51  49  95 NW14      29.76S
RICHLANDS*     LGT RAIN  42  40  92 N9        29.84F
WISE*          RAIN      39  39 100 N12G20    29.88R
ABINGDON*      CLOUDY    48  43  82 N6        29.81R
$$

MDZ021>025-VAZ099-100-270400-
SOUTHERN MARYLAND AND THE DELMARVA PENINSULA

CITY           SKY/WX    TMP DP  RH WIND       PRES   REMARKS
PATUXENT RIVER CLOUDY    63  58  83 S5        29.66R
BAY BRIDGE APT RAIN      52  52 100 N8        29.72R
LEONARDTOWN    CLOUDY    63  55  77 NW6       29.70R
DOVER          CLOUDY    59  59 100 N12       29.64R
GEORGETOWN     CLOUDY    63  60  90 SW16G25   29.65S
EASTON         CLOUDY    60  60 100 N6        29.73R
CAMBRIDGE      CLOUDY    61  55  82 N7        29.68R
SALISBURY      CLOUDY    63  60  90 SW13      29.66S
OCEAN CITY     CLOUDY    54  53  97 SW12G20   29.67F
WALLOPS ISLAND CLOUDY    50  50 100 S12       29.69S FOG
ACCOMACK*      CLOUDY    59  54  82 S9        29.68F
$$

NCZ012>017-030>032-270400-
NORTH CENTRAL AND EASTERN NORTH CAROLINA

CITY           SKY/WX    TMP DP  RH WIND       PRES   REMARKS
ROANOKE RAPIDS FAIR      64  55  72 S13       29.72S
RALEIGH        CLOUDY    68  56  65 SW10      29.72S
ELIZABETH CITY CLOUDY    65  56  72 S14G21    29.75S
AHOSKIE*       CLOUDY    65  57  75 S7        29.74S
EDENTON*       CLOUDY    65  57  77 S13       29.76S
CURRITUCK*     CLOUDY    66  55  67 S8        29.76R
KILL DEVIL HLS CLOUDY    64  59  85 SW10G18   29.77S
MANTEO         CLOUDY    63  59  87 SW22      29.78F
CAPE HATTERAS  CLOUDY    65  60  84 SW12      29.82F
TARBORO*       FAIR      67  58  73 S7        29.75S
GOLDSBORO      CLOUDY    67  66  98 S9G17     29.74S
WASHINGTON     MOCLDY    66  56  71 S6        29.77F
GREENVILLE     MOCLDY    66  59  77 S10       29.78S
NEW BERN       PTCLDY    64  57  78 S8        29.80F
WILMINGTON     PTCLDY    64  59  83 S10       29.81F
$$

VAZ048-270400-
ELSEWHERE

CITY           SKY/WX    TMP DP  RH WIND       PRES   REMARKS
HARRISBURG PA  LGT RAIN  46  39  76 NW13      29.75S
BALTIMORE      RAIN      53  49  86 NW8       29.72R
ANNAPOLIS      LGT RAIN  54  50  86 NW7       29.71R FOG
ANDREWS AFB    RAIN      54  52  92 NW10      29.71R
PHILADELPHIA   LGT RAIN  54  52  93 N5        29.67S
HENDERSON NC   CLOUDY    64  53  65 S7        29.71S
GREENSBORO     CLOUDY    65  54  67 SW14      29.69F
ROCKY MOUNT    CLOUDY    67  59  75 S9        29.73F
$$

VAZ100-270400-
MARINE

STATION/POSITION TIME  TEMP    WIND        PRES    WAVE   SWELL
                       AIR SEA DIR/SP/G            HT/PER HT/PER
                 (UTC) (F)     (DEG/KT/KT) (MB)    (FT/S) (FT/S)
BRANDYWINE LGT   0200   52 40  200/ 14/ 14 1003.5R
CAPE MAY NJ      0200   48 43  160/  5/  7 1003.3R
LEWES DE         0200   61 40  220/  7/ 11 1003.5R
15NM E FENWICK I 0250   44 40              1004.5R   8/ 9
OCEAN-CITY-INLET 0200   46 44  200/ 13/ 15 1004.7R
WACHAPREAGUE VA  0200   53 53  230/ 10/ 14 1005.3R
THOMAS POINT MD  0300                        N/A
COVE POINT MD    0200   64     220/ 14/ 16 1003.8R
SOLOMONS ISLAND  0200      43                N/A
BISHOPS HEAD MD  0218          200/ 14/ 16   N/A
PINEY POINT MD   0200          170/  2/  3   N/A
CAMBRIDGE MD     0200   59 42  180/  6/  8 1003.9R
LEWISETTA VA     0200   64 49              1004.0R
RAPPAHANNOCK LGT 0200          190/ 17/ 18 1005.4R
STINGRAY PT      0300   55 44  230/ 10/ 12   N/A     1/ 3
YORK RVR RNG VA  0200   60     220/ 20/ 20 1004.5F
YORKTOWN VA      0200   66 48  200/ 11/ 15 1005.0S
DOMINION TERM VA 0200   61     210/ 12/ 13 1005.9R
KIPTOPEKE VA     0200      50  180/  8/  9   N/A
CHES BAY BRIDGE  0200   65 47  190/ 16/ 18 1005.5S
CAPE HENRY VA    0200   68     200/ 11/ 16 1005.0R
CHESAPEAKE LGHT  0200   55     190/ 28/ 29 1006.3F
WILLOUBY STN VA  0200   66     200/ 14/ 15 1006.4R
S CRANEY ISL VA  0200          200/  9/ 12 1006.0R
CAPE HENRY BUOY  0228      44                N/A     6/ 9   2/11
1ST LANDING BUOY 0300   59     210/ 12/ 14 1005.9R   3/ 5
OFFSHORE WE BUOY 0211      41                N/A     7/ 9   5/ 9
64NM E OF VA BCH 0250   57 51  200/ 19/ 21 1007.5S  10/ 9   7/ 9
DUCK PIER NC     0200   62 41  180/ 15/ 18 1007.0R
44056 DUCK FRF   0211      42                N/A     5/ 8   2/11
OREGON INLET NC  0200   61 59  190/ 20/ 23 1009.1R
HATTERAS NC      0200   66 60  210/ 11/ 14 1010.8R
CAPE LOOKOUT NC  0300   63     190/ 10/ 11 1009.6F
$$



USA.gov is the U.S. government's official web portal to all federal, state and local government web resources and services.